Printer-friendly version
Follow the MPC on Twitter Follow the MPC on Facebook The MPC blog
Minor Planet Center

MPEC 2008-T107: 2008 TP10

The following Minor Planet Electronic Circular may be linked-to from your own Web pages, but must not otherwise be redistributed electronically.

A form allowing access to any MPEC is at the bottom of this page.


Read MPEC 2008-T106 Read MPEC 2008-T108


M.P.E.C. 2008-T107                               Issued 2008 Oct.  9, 16:35 UT

     The Minor Planet Electronic Circulars contain information on unusual
         minor planets and routine data on comets.  They are published
   on behalf of Commission 20 of the International Astronomical Union by the
          Minor Planet Center, Smithsonian Astrophysical Observatory,
                          Cambridge, MA 02138, U.S.A.

             Prepared using the Tamkin Foundation Computer Network

                              MPC@CFA.HARVARD.EDU
          URL http://www.cfa.harvard.edu/iau/mpc.html  ISSN 1523-6714

                                   2008 TP10

Observations:
     K08T10P* C2008 10 08.33519 02 01 58.33 +18 58 51.4          22.0 V ET107G96
     K08T10P  C2008 10 08.34177 02 01 57.39 +18 58 42.8          22.2 V ET107G96
     K08T10P  C2008 10 08.34837 02 01 56.56 +18 58 33.8          22.0 V ET107G96
     K08T10P  C2008 10 08.35508 02 01 55.52 +18 58 23.7          21.8 V ET107G96
     K08T10P  C2008 10 08.37885 02 01 52.14 +18 57 50.8          22.0 V ET107G96
     K08T10P  C2008 10 08.38419 02 01 51.37 +18 57 43.5          22.8 V ET107G96
     K08T10P  C2008 10 08.38951 02 01 50.65 +18 57 36.5          21.8 V ET107G96
     K08T10P  C2008 10 08.39481 02 01 49.91 +18 57 29.1          21.9 V ET107G96
     K08T10P  C2008 10 08.48256 02 01 37.59 +18 55 25.3          21.0 R ET107H01
     K08T10P  C2008 10 08.49261 02 01 36.21 +18 55 11.0          21.0 R ET107H01
     K08T10P  C2008 10 09.23722 01 59 59.44 +18 38 09.8          22.3 V ET107H55
     K08T10P  C2008 10 09.25276 01 59 57.24 +18 37 49.6          22.2 V ET107H55
     K08T10P  C2008 10 09.26758 01 59 55.25 +18 37 28.0          22.3 V ET107H55
     K08T10P  C2008 10 09.38648 01 59 39.20 +18 34 48.4          21.3 R ET107H01
     K08T10P  C2008 10 09.39873 01 59 37.52 +18 34 31.4          21.5 R ET107H01
     K08T10P  C2008 10 09.40215 01 59 37.16 +18 34 27.0          21.8 V ET107G96
     K08T10P  C2008 10 09.40365 01 59 36.88 +18 34 26.1          22.1 V ET107G96
     K08T10P  C2008 10 09.40502 01 59 36.64 +18 34 23.8          22.4 V ET107G96
     K08T10P  C2008 10 09.40640 01 59 36.52 +18 34 21.6          21.6 V ET107G96
     K08T10P  C2008 10 09.40987 01 59 36.00 +18 34 16.2          21.5 R ET107H01

Observer details:
G96 Mt. Lemmon Survey.  Observer A. Boattini.  Measurers E. C. Beshore,
    A. Boattini, G. J. Garradd, A. R. Gibbs, A. D. Grauer, R. E. Hill,
    R. A. Kowalski, S. M. Larson, R. H. McNaught.  1.5-m reflector + CCD.
H01 Magdalena Ridge Observatory, Socorro.  Observer W. H. Ryan.  2.4-m f/8.9
    reflector + CCD.
H55 Astronomical Research Observatory, Charleston.  Observer R. Holmes.
    Measurer H. Devore.  0.81-m f/4.0 astrograph + CCD.

Orbital elements:
2008 TP10                                                Earth MOID = 0.0062 AU
Epoch 2008 Nov. 30.0 TT = JDT 2454800.5                 MPC
M  47.01039              (2000.0)            P               Q
n   0.34392330     Peri.   59.71511     +0.32797803     +0.94343379
a   2.0175686      Node   229.51245     -0.88720616     +0.28993869
e   0.5738504      Incl.    3.66466     -0.32449289     +0.16083606
P   2.87           H   22.5           G   0.15           U   9
Residuals in seconds of arc
081008 G96  0.3-  0.2-    081008 G96  0.1+  0.1+    081009 H01  0.1+  0.1-
081008 G96  0.4-  0.3+    081008 H01  0.0   0.1+    081009 G96  0.7+  0.5-
081008 G96  1.1+  0.4+    081008 H01  0.1+  0.0     081009 G96  0.3-  0.6+
081008 G96  0.1-  0.4-    081009 H55  0.2+  0.3-    081009 G96  1.0-  0.2+
081008 G96  0.3-  0.4-    081009 H55  0.6-  0.6+    081009 G96  0.0   0.1-
081008 G96  0.5-  0.2-    081009 H55  0.2+  0.8-    081009 H01  0.2+  0.0
081008 G96  0.1-  0.2+    081009 H01  0.0   0.0

Ephemeris:
2008 TP10                a,e,i = 2.02, 0.57, 4                   q = 0.8598
Date    TT    R. A. (2000) Decl.     Delta      r     Elong.  Phase     V
2008 10 01    02 19.49   +21 54.1    0.352    1.312   147.4    24.3    22.0
2008 10 11    01 56.23   +17 58.7    0.410    1.397   163.6    11.6    22.0
2008 10 21    01 38.18   +14 37.6    0.486    1.481   175.9     2.8    22.1
2008 10 31    01 25.98   +12 04.4    0.582    1.564   166.3     8.7    22.9

Sonia Keys                   (C) Copyright 2008 MPC           M.P.E.C. 2008-T107

Read MPEC 2008-T106 Read MPEC 2008-T108


MPEC number:

Enter an MPEC number in one of the following forms:

  • 1997-B01 (the full form)
  • J97B01 (the packed version of the full form)
  • B01 (the abbreviated form)

Valid HTML 4.01!